Location: Unspecified
(0.0000°N, 0.0000°E)
Time: 04:50:42
(UTC+00:00)

N. Korean satellite - Visible Passes

Search period start: 19 January 2019 00:00
Search period end: 29 January 2019 00:00
Orbit: 458 x 509 km, 97.2° (Epoch: 17 January)

Date Brightness Start Highest point End Pass type
(mag) Time Alt. Az. Time Alt. Az. Time Alt. Az.
19 Jan 8.4 05:31:36 10° NNE 05:34:57 36° E 05:38:16 10° S visible
20 Jan 9.9 05:08:16 10° ENE 05:10:21 15° E 05:12:25 10° SE visible
23 Jan 8.8 05:26:33 10° NE 05:29:43 30° E 05:32:51 10° SSE visible
23 Jan 10.6 18:49:48 10° WSW 18:50:27 10° W 18:51:06 10° W visible
24 Jan 10.1 05:03:40 10° ENE 05:05:06 12° E 05:06:32 10° SE visible
26 Jan 7.0 05:45:32 10° NNE 05:49:04 68° E 05:52:33 10° S visible
27 Jan 9.2 05:21:31 10° NE 05:24:26 24° E 05:27:21 10° SSE visible
27 Jan 10.2 18:43:31 10° SW 18:45:12 13° W 18:46:53 10° WNW visible
